Theta_e
345 345 345 345 346 346 345 346 346 346 346 347 346 346 346 346 346 346 345 345 345 345 345 345 346 347 348 348 348 348 346 346 344 340 337 336 335 335 335 333 330 327 325 325 327 329 330 332 333 335 336 338 338 338 338 338 336 334 332 330 328 329 329 329 329 329 329 330 330 332 334 336 337 338 338 339 339 339 339 339 338 338 337 336 334
345 346 346 345 346 346 346 345 346 346 346 346 346 346 346 347 347 346 345 346 346 345 345 345 345 345 347 348 347 347 347 346 344 342 339 337 336 336 336 336 334 332 330 329 327 326 325 326 327 329 331 333 334 335 334 332 331 329 328 328 329 330 331 332 333 333 334 334 335 335 336 338 339 339 339 339 339 339 339 339 338 337 335 334 330
347 346 345 345 346 346 346 345 345 345 346 346 346 346 347 347 347 347 347 347 346 345 345 345 344 344 345 347 347 347 347 347 344 343 340 337 337 337 336 336 336 336 336 335 334 332 330 327 326 326 326 327 328 329 328 327 327 328 329 331 332 333 335 336 337 337 337 338 338 339 339 339 340 340 340 340 339 339 339 339 338 335 333 331 325
347 346 346 346 346 346 345 345 345 345 346 347 346 346 347 346 346 347 347 346 345 345 344 344 343 343 344 345 347 347 347 346 345 344 342 338 337 338 336 336 337 337 338 338 338 337 336 334 331 330 328 328 328 328 328 329 330 332 334 335 336 337 338 339 339 340 340 340 340 341 340 340 340 340 340 340 340 339 339 338 336 333 331 327 320
346 346 347 348 347 346 346 346 345 343 344 346 345 346 346 346 346 347 347 346 347 345 344 344 343 343 344 344 345 347 347 345 344 344 343 341 340 339 337 336 335 336 336 338 338 338 338 337 336 334 333 333 333 333 334 334 335 337 338 338 338 339 339 340 340 341 341 341 341 341 341 341 341 341 340 341 340 339 339 337 334 332 329 322 317
348 349 349 348 346 346 347 347 344 342 343 344 346 346 345 346 347 348 347 347 346 345 345 344 343 343 343 343 345 346 346 345 345 344 344 343 342 342 341 339 338 337 337 336 336 336 337 338 338 336 336 336 336 337 338 338 339 338 338 338 339 339 340 340 341 341 341 341 341 341 341 340 340 340 340 340 340 339 338 335 332 331 326 319 317
348 348 347 347 345 346 347 345 344 344 344 344 346 346 346 346 348 348 347 346 345 345 345 344 343 344 343 344 345 345 346 346 345 344 344 345 342 342 344 343 344 343 341 341 339 339 336 336 337 337 336 336 337 338 338 338 338 337 337 337 338 339 339 340 340 341 341 341 340 340 340 340 339 339 339 339 339 337 335 331 329 328 322 317 319
346 346 346 346 347 346 345 345 345 345 346 345 346 346 346 348 348 347 347 346 345 345 345 343 342 343 343 344 345 345 346 346 346 345 344 344 343 343 343 344 345 344 344 345 345 342 338 333 333 334 335 334 335 336 336 336 335 336 336 336 337 338 338 339 339 340 340 340 339 339 339 339 338 338 338 338 337 335 331 328 327 324 319 317 320
345 346 346 346 347 346 345 344 344 344 345 345 346 346 346 347 348 347 347 346 346 345 343 342 342 343 343 344 345 345 346 346 346 345 345 344 344 344 343 343 344 343 344 346 346 343 340 335 332 332 333 333 333 333 333 333 333 334 335 335 335 335 335 336 336 337 338 337 335 334 334 335 335 335 336 337 335 331 328 326 324 321 317 318 321
344 345 346 345 346 345 343 343 343 344 345 344 344 345 345 347 347 347 348 347 347 345 344 343 343 344 344 343 343 345 346 346 346 345 344 344 344 345 344 344 343 342 344 346 345 343 340 338 336 335 336 335 334 333 332 332 332 332 333 333 333 333 332 332 332 332 331 330 327 326 326 329 331 332 334 334 332 327 324 323 321 319 317 320 322
343 344 346 346 346 344 343 343 343 345 346 344 343 343 343 345 347 347 347 347 347 346 345 345 344 344 344 342 343 346 346 345 346 345 345 344 344 345 344 344 343 341 342 342 343 344 343 340 338 338 338 337 336 335 334 333 332 332 332 333 332 331 330 329 327 326 324 323 322 322 321 324 327 330 331 330 327 324 322 320 319 318 318 321 322
342 344 345 348 347 343 343 343 344 346 345 343 343 343 342 343 345 346 346 346 345 345 344 344 344 344 344 342 342 346 346 346 347 346 346 344 344 345 345 344 343 342 341 340 339 341 343 341 338 336 335 334 334 334 334 334 334 333 332 331 329 328 327 326 323 322 321 321 321 321 320 320 324 326 327 326 323 321 320 319 318 318 319 321 323
341 343 346 348 347 344 344 344 344 346 347 345 344 343 343 342 344 345 345 345 345 344 344 344 344 343 343 343 343 345 345 346 347 346 345 345 343 345 345 344 344 343 343 343 340 338 340 341 338 335 333 332 331 331 331 332 333 332 330 327 326 326 325 324 322 321 320 321 321 321 320 319 320 321 322 321 320 320 319 319 318 319 321 322 322
341 342 345 347 346 345 345 345 345 346 346 343 343 344 344 343 344 346 344 345 346 345 344 344 343 342 343 344 345 345 345 346 347 346 345 345 344 343 343 344 345 344 344 344 344 342 341 342 340 336 334 334 333 331 331 330 331 330 329 326 326 325 325 324 323 321 320 320 321 320 319 319 319 319 319 320 320 319 319 319 320 320 321 322 323
342 342 343 345 345 345 346 346 345 344 345 344 343 343 345 345 346 346 345 346 347 345 345 345 344 343 345 346 345 345 345 345 346 346 345 345 345 344 342 344 345 345 343 342 344 345 343 342 340 338 337 336 335 333 332 331 330 330 329 328 327 326 326 325 324 323 320 320 320 320 320 319 320 320 320 320 320 320 320 320 321 321 322 322 323
343 342 343 343 344 345 346 345 344 344 345 345 345 344 345 347 347 346 345 347 346 344 345 346 345 343 345 345 345 345 346 344 344 345 346 345 345 345 343 344 345 344 343 342 344 344 342 338 338 341 340 337 336 335 334 333 332 331 330 329 329 328 327 326 326 325 323 321 320 320 321 321 321 321 322 322 321 321 322 321 322 322 322 322 322
342 342 343 343 343 346 346 344 343 344 344 344 346 346 345 346 346 346 347 347 345 344 345 345 344 344 345 346 344 344 345 345 343 342 345 346 344 344 344 344 343 343 344 342 342 342 339 337 339 342 341 339 338 337 337 336 333 332 331 330 331 330 328 328 327 327 326 324 323 321 321 322 322 323 323 323 323 323 323 323 322 323 323 323 323
341 340 342 342 342 344 345 345 344 345 345 345 347 348 347 346 345 346 348 348 347 345 346 346 343 341 344 345 344 344 343 344 344 342 343 345 344 344 344 343 342 342 344 343 341 341 341 341 342 342 341 339 339 339 340 337 334 333 333 332 332 331 329 329 328 328 327 326 325 324 323 323 323 323 324 323 324 323 324 324 323 323 323 323 323
341 341 340 342 342 343 345 345 345 345 345 345 348 349 350 351 349 347 348 349 348 346 346 346 342 340 344 345 343 344 343 343 345 344 345 344 343 344 344 343 343 342 344 344 343 343 343 343 343 343 341 339 338 339 341 340 335 333 333 333 332 330 329 328 328 327 326 326 326 326 325 324 324 324 324 324 324 324 324 324 324 324 324 324 323
341 341 341 342 343 343 344 345 345 345 343 342 348 352 352 352 351 348 347 347 347 346 345 346 345 342 344 345 344 344 342 342 344 344 345 344 343 344 344 344 343 342 344 343 342 344 344 343 343 343 343 341 340 342 343 341 336 331 330 330 329 328 327 327 326 326 326 326 326 326 325 325 325 325 325 324 324 324 324 324 324 324 324 324 324
341 341 342 342 343 342 343 344 343 344 344 342 347 353 353 351 349 347 346 345 346 346 345 347 349 346 344 345 346 345 343 343 345 345 344 343 343 345 343 343 343 343 343 341 339 341 342 342 343 344 343 342 343 343 342 340 336 332 330 329 328 328 327 327 327 327 327 327 327 327 327 327 326 326 326 326 325 325 324 324 324 324 324 324 324
340 341 342 341 341 341 342 343 342 343 344 345 349 352 352 351 348 346 346 346 345 346 346 348 350 348 345 344 342 342 343 345 346 345 344 344 344 346 344 343 343 343 343 342 340 342 341 341 342 342 341 341 342 342 341 340 337 334 331 330 329 329 329 329 329 329 329 330 330 330 330 330 329 329 328 328 328 327 326 326 325 325 324 324 324
339 340 341 341 341 341 341 341 342 343 343 346 352 353 352 351 348 345 346 347 345 345 346 347 350 348 345 343 341 341 342 344 345 344 343 342 342 344 343 343 344 343 344 344 343 345 344 343 343 343 343 343 343 341 339 338 336 334 333 332 331 330 331 331 331 332 331 331 331 331 331 331 331 331 331 331 331 330 330 329 328 328 327 326 326
340 338 338 340 340 341 341 341 342 342 342 345 351 353 353 353 350 346 346 346 347 347 346 346 347 347 348 348 347 347 345 344 344 344 344 342 341 342 343 344 344 345 345 345 345 345 344 343 343 343 344 344 342 340 338 338 336 333 332 333 332 332 332 332 332 332 332 332 332 331 331 331 331 331 331 331 331 331 331 331 331 331 330 330 330
338 339 339 338 339 339 340 340 341 341 341 343 347 350 353 354 353 350 346 345 347 348 346 347 349 350 351 352 351 351 350 347 344 343 344 344 343 344 345 345 345 345 346 347 346 345 343 342 343 342 342 342 341 340 341 342 340 336 333 332 332 332 332 332 332 331 332 331 331 331 331 331 331 331 331 331 331 330 331 331 331 331 332 332 331
332 336 339 338 337 338 338 338 340 340 341 342 343 345 350 353 354 351 346 343 345 346 346 347 349 352 353 353 351 351 351 350 347 345 346 345 345 346 348 348 344 343 346 347 347 346 345 345 345 344 344 344 344 344 344 345 345 343 339 335 332 332 332 331 331 331 331 331 331 332 331 332 331 332 331 331 332 331 331 331 332 332 332 332 332
328 330 333 334 334 335 337 338 339 339 340 341 342 342 344 348 350 349 345 343 343 344 346 346 346 350 353 353 352 350 351 350 348 349 349 348 348 348 349 348 341 337 342 347 348 347 347 347 346 346 346 346 345 345 345 346 347 346 342 337 334 332 333 333 333 333 334 334 335 335 335 336 335 336 335 335 335 335 334 334 334 334 333 334 334
326 327 328 328 329 330 333 336 338 338 339 340 342 341 341 343 344 344 343 343 342 342 344 344 344 347 352 355 353 350 350 349 348 350 350 349 348 347 346 344 337 333 335 339 342 344 347 349 348 346 347 347 346 345 346 348 347 344 339 337 336 333 334 336 337 337 338 338 339 341 341 342 343 341 340 339 338 339 340 340 340 341 340 339 339
325 326 326 326 327 328 330 332 336 338 338 338 339 341 340 340 340 340 340 341 341 340 341 341 342 344 348 354 355 351 349 348 347 350 351 349 347 345 344 341 337 337 337 335 334 335 341 347 348 348 348 347 346 347 348 347 344 340 338 338 339 337 336 337 338 339 340 341 343 346 347 348 349 347 344 343 343 345 347 349 350 349 349 348 347
326 325 326 326 327 328 329 330 332 336 339 338 338 339 339 339 339 338 338 339 339 339 339 339 341 342 344 351 355 353 351 349 347 349 351 350 348 346 345 342 339 340 341 339 335 332 333 338 343 348 349 348 349 349 347 343 339 341 343 344 344 343 341 343 344 345 346 347 348 350 351 352 352 351 351 351 351 352 353 354 355 354 354 353 352
326 325 325 326 329 331 331 331 330 332 336 338 339 339 338 338 338 338 338 337 338 338 338 338 338 340 341 346 351 352 352 350 347 348 351 352 352 349 345 342 341 341 341 340 337 335 335 335 336 341 344 344 344 343 341 338 340 345 347 347 346 347 349 351 350 349 349 348 349 351 352 352 353 353 354 355 355 355 356 355 356 355 355 355 353
326 325 326 327 329 333 334 334 333 331 331 335 338 340 340 338 338 338 338 337 337 337 337 337 336 336 338 340 343 345 348 348 345 345 349 352 352 348 344 343 345 347 347 346 343 336 335 336 333 332 334 334 334 334 333 334 338 343 346 347 349 350 352 351 349 348 348 349 349 351 352 352 354 355 356 356 356 356 356 356 356 356 355 355 355
326 326 328 329 330 333 336 336 336 334 331 332 334 337 339 339 338 338 338 338 337 337 337 337 336 336 337 338 338 339 340 340 341 341 342 345 347 346 346 348 350 353 353 352 349 340 333 333 332 330 331 331 330 331 332 333 336 341 343 345 346 346 347 347 347 348 349 351 352 352 354 354 354 356 356 356 356 357 357 356 356 357 357 357 357
325 324 327 330 331 334 337 336 336 335 335 332 332 334 336 338 339 339 338 338 337 337 336 337 336 336 337 337 335 335 335 335 337 338 339 339 340 342 348 352 353 354 354 353 352 348 338 332 332 332 332 332 331 331 334 335 336 339 341 342 344 345 347 349 351 351 352 353 354 354 355 355 356 356 357 357 358 357 357 357 358 359 359 359 359
325 324 325 328 331 333 335 336 336 336 336 334 333 333 334 334 336 338 338 338 337 337 336 336 336 336 337 337 334 334 334 335 336 337 338 337 337 338 345 353 355 354 354 354 353 352 346 337 333 333 333 334 333 333 336 338 340 342 344 344 347 349 352 353 354 354 354 355 355 355 356 356 357 357 358 358 358 357 358 359 359 358 358 357 356
325 325 326 328 331 333 335 337 337 335 336 336 334 333 334 334 334 335 337 337 337 337 336 335 336 336 336 336 336 336 336 335 336 337 336 336 337 337 340 346 351 352 353 351 349 349 347 340 333 331 333 334 334 334 336 339 342 345 346 347 349 352 354 355 355 356 356 356 356 356 356 357 357 358 358 358 358 358 358 356 354 352 352 351 351
326 327 328 331 333 335 336 337 337 336 336 336 335 334 334 334 334 334 335 336 337 338 337 336 335 335 336 335 335 336 336 336 334 335 335 335 336 337 338 339 341 342 343 342 341 341 340 336 331 331 332 332 332 333 336 339 342 344 346 350 353 356 356 356 356 356 357 357 356 356 356 357 357 358 358 358 357 354 350 346 344 344 346 350 352
330 331 332 334 336 338 337 337 339 337 337 337 336 335 334 334 334 334 334 335 336 337 336 337 335 334 334 334 335 335 336 335 335 334 335 335 335 336 337 336 334 334 334 334 335 335 335 334 332 332 331 331 332 332 334 339 341 344 350 354 355 356 356 356 355 355 355 355 354 355 357 357 358 357 356 354 350 344 339 338 339 342 348 351 353
336 337 339 339 339 339 339 340 340 339 339 338 337 337 336 335 334 334 334 334 335 336 335 335 335 335 333 333 332 334 333 333 333 334 334 334 334 334 335 335 332 331 332 332 333 335 335 334 332 331 330 330 331 330 332 336 340 346 354 357 356 355 356 355 353 352 352 353 354 356 357 357 356 354 350 344 339 336 335 334 338 344 350 352 352
339 341 342 342 342 341 341 341 342 342 342 341 339 338 338 337 336 336 335 334 334 335 335 335 335 335 334 333 332 332 332 332 331 332 331 331 331 331 331 331 331 331 332 332 333 334 334 332 331 330 330 330 329 329 330 335 340 347 354 356 356 354 354 352 350 350 351 354 356 356 356 355 352 346 341 337 335 333 330 331 337 346 350 350 349
342 344 345 345 345 344 344 344 345 345 345 344 341 339 338 338 339 338 336 334 333 333 334 334 335 334 334 334 332 331 331 329 328 330 332 333 334 334 333 332 333 333 332 332 332 332 332 332 331 329 329 329 328 328 329 333 338 345 349 351 350 349 350 351 351 353 355 356 357 356 354 352 347 340 336 334 333 333 333 336 342 346 346 343 341
345 346 347 347 348 348 347 346 347 347 346 346 343 340 339 339 339 340 339 336 335 334 333 333 333 333 333 333 332 331 330 329 328 333 339 342 344 344 344 343 341 339 336 334 332 332 332 332 330 329 330 328 328 329 330 333 336 340 344 346 348 350 353 355 355 356 357 357 357 356 352 349 344 338 335 334 336 339 342 343 344 341 337 334 335
348 349 349 349 350 351 350 349 348 348 347 346 344 341 340 339 340 340 341 339 337 335 335 334 334 332 332 332 332 332 334 333 331 337 346 349 349 350 350 348 345 341 339 336 334 333 333 330 328 329 329 327 327 330 332 335 340 344 347 350 354 355 356 358 357 357 358 358 357 355 349 345 343 338 336 338 341 344 344 342 336 331 328 328 332
350 351 351 351 351 352 352 351 350 349 348 346 344 342 340 340 340 341 341 340 340 339 337 336 335 334 333 332 332 332 334 335 334 339 346 349 350 350 350 347 345 342 339 336 335 332 331 330 328 327 327 328 330 332 337 342 346 349 351 354 356 357 357 358 358 358 358 357 356 352 346 342 342 340 338 340 341 340 339 335 329 326 325 325 327
352 353 353 352 352 353 354 353 352 350 349 348 346 343 340 339 340 340 341 341 342 341 339 337 336 337 335 334 335 334 334 334 335 337 340 342 344 345 344 344 343 341 338 337 333 330 330 329 328 325 326 331 334 336 342 348 350 352 354 356 357 358 358 358 358 359 357 353 351 348 343 343 344 341 338 338 337 334 331 327 325 325 325 325 325
353 353 354 354 353 353 354 354 353 353 351 348 347 345 343 341 340 340 340 341 341 341 341 339 337 337 337 336 336 335 335 335 336 338 339 341 343 344 342 341 340 336 334 334 330 329 329 329 328 328 329 333 338 343 348 351 352 354 356 357 358 358 358 358 359 358 354 350 348 346 343 344 345 343 340 336 332 329 327 325 325 325 324 324 324
353 353 354 354 354 354 354 354 355 354 353 350 348 347 345 343 340 340 340 341 341 341 341 341 339 338 338 337 337 336 335 335 335 337 339 342 344 345 344 341 337 331 329 328 327 328 329 329 331 332 331 334 344 350 352 352 353 355 357 358 358 358 359 359 358 354 351 349 348 345 342 342 342 343 341 334 326 325 325 324 324 323 323 323 323
354 354 354 355 354 353 354 354 355 355 354 353 351 349 347 344 342 342 343 343 343 342 342 342 341 339 339 338 338 337 335 334 332 333 336 339 341 342 340 338 334 330 327 325 326 327 328 329 331 333 332 337 348 354 354 354 353 355 358 358 358 358 358 357 354 351 350 350 348 343 339 340 338 338 335 329 325 324 324 324 323 323 323 323 323
355 355 355 355 355 355 354 354 355 355 355 354 354 352 350 347 345 344 345 344 344 343 344 343 343 342 341 340 340 338 336 333 331 331 334 336 338 337 336 334 332 330 326 325 325 326 327 329 331 332 333 340 349 355 355 354 352 354 356 357 357 358 356 354 354 353 352 351 346 340 339 339 335 331 327 325 324 324 323 323 322 322 322 322 322
355 355 355 355 355 355 354 354 353 354 355 355 355 354 353 351 349 347 345 345 345 344 345 345 346 345 344 342 342 341 338 334 332 332 335 338 339 338 336 335 334 331 327 325 326 327 328 330 332 333 334 340 347 353 354 354 352 353 354 356 357 358 356 355 356 355 353 351 346 340 338 336 331 327 325 323 323 324 323 322 322 322 322 321 321
355 355 356 355 356 356 355 354 353 353 354 355 355 355 354 354 353 350 348 349 348 347 346 347 347 347 345 343 342 342 340 336 335 335 336 339 338 335 335 336 336 332 327 326 328 330 331 332 333 333 336 340 345 350 352 352 352 352 353 356 358 359 358 357 356 355 354 351 347 342 338 332 327 325 324 323 323 323 323 322 322 322 322 321 321
Wind_Speed
9 9 9 9 8 8 9 9 9 9 10 10 10 10 10 10 10 10 11 11 11 12 10 8 7 5 6 6 4 2 0 3 3 4 5 4 5 6 7 7 7 7 7 7 7 6 5 5 4 4 4 4 4 4 4 4 3 2 2 2 3 2 2 2 3 3 2 3 2 2 3 4 4 5 5 6 7 8 8 9 10 10 9 9 8
9 9 9 8 7 8 8 8 8 9 10 10 10 10 10 9 8 8 9 10 9 10 9 7 4 4 5 4 3 2 0 2 3 3 4 4 4 5 6 6 6 7 7 7 7 6 5 5 4 4 4 4 4 4 3 2 2 2 2 2 2 2 2 2 2 2 2 2 2 2 3 4 5 6 6 7 8 8 9 9 10 9 8 8 7
10 9 8 8 7 8 8 9 9 9 10 10 10 9 9 8 8 8 8 8 8 8 8 6 3 3 5 2 1 1 0 2 3 4 4 3 3 4 4 5 5 5 6 6 6 6 6 5 5 4 4 4 4 3 2 2 2 2 2 2 2 2 1 1 1 1 2 3 3 4 5 5 6 7 7 8 8 8 9 9 9 8 7 6 7
9 8 8 7 7 7 7 8 9 10 10 9 9 8 8 8 10 10 9 9 10 11 10 7 5 3 3 2 1 1 1 1 3 4 5 4 3 3 3 4 4 4 4 4 5 5 5 4 4 4 4 4 3 3 2 2 2 2 2 1 1 1 2 2 2 3 3 4 5 6 6 7 7 7 8 8 8 8 8 8 7 6 6 6 6
8 7 7 6 6 7 7 7 8 9 10 10 9 9 9 10 11 12 12 11 11 12 11 8 6 5 4 3 3 1 1 2 3 4 5 5 3 2 3 3 4 4 3 3 3 3 3 3 3 2 2 2 2 2 1 1 1 1 2 3 3 3 3 4 4 4 5 5 6 6 7 7 7 7 8 8 8 8 8 7 6 5 5 5 5
9 8 7 6 7 7 7 7 8 8 9 10 9 9 10 10 11 11 12 12 12 12 10 7 5 6 7 4 4 2 2 2 2 3 3 3 3 2 2 2 2 3 3 3 2 2 2 2 1 1 1 0 0 0 1 1 2 3 3 4 4 4 4 5 5 6 6 6 6 7 7 7 7 7 7 8 8 8 7 6 4 4 4 4 4
11 10 9 8 7 7 8 8 9 8 8 9 9 9 9 10 10 10 11 12 12 12 8 8 6 6 8 5 4 4 3 3 1 2 2 2 2 2 2 2 1 1 2 3 2 2 1 1 1 1 0 1 1 2 2 2 3 3 3 3 4 5 5 6 6 6 6 7 7 7 7 7 7 7 7 7 7 7 5 4 3 3 3 2 3
12 12 11 10 8 8 9 8 9 8 8 9 10 11 10 11 11 10 12 13 13 10 8 8 7 7 8 6 5 5 5 5 4 2 1 2 2 3 2 2 2 1 1 2 2 2 2 1 1 1 1 1 1 2 3 3 3 3 3 4 4 5 6 6 7 7 7 7 7 7 7 7 7 6 7 7 6 6 5 4 3 2 2 1 3
11 11 11 10 9 8 8 9 9 9 8 9 11 11 11 12 10 11 14 13 12 10 8 9 8 8 9 7 5 5 5 6 5 5 3 2 1 3 3 3 3 1 1 1 2 2 2 1 0 0 0 0 1 2 2 3 3 3 4 4 4 5 6 7 7 7 7 7 8 8 8 7 7 6 6 6 5 5 4 3 2 2 1 2 3
11 10 10 9 9 8 8 9 10 9 8 9 9 9 11 12 11 12 12 11 10 8 8 8 6 8 10 6 4 3 2 5 7 6 4 3 3 3 3 4 4 1 1 0 1 2 2 1 1 1 0 0 1 1 2 3 3 3 4 4 4 5 6 7 7 7 7 7 8 7 7 6 6 5 5 5 4 4 3 3 2 1 1 3 3
11 10 9 9 9 9 8 9 9 9 9 9 9 8 10 11 12 13 12 10 9 7 6 4 5 10 9 4 5 5 2 4 7 6 4 3 4 5 3 4 5 4 1 1 0 1 2 1 2 2 1 1 1 1 2 3 4 3 3 3 4 5 6 7 7 8 7 7 7 7 6 5 5 5 5 5 4 3 3 2 2 1 2 4 3
10 10 10 8 8 8 8 9 9 9 9 9 10 9 9 10 12 14 13 12 10 8 7 5 7 11 7 2 5 6 3 4 5 5 5 2 3 6 5 4 6 6 3 4 3 2 3 3 3 2 1 1 1 2 2 3 4 4 4 4 5 5 6 7 7 8 7 7 7 7 6 5 5 4 4 4 3 3 2 2 2 2 3 4 4
10 10 10 8 8 8 8 8 8 8 9 9 10 9 9 10 12 13 14 14 11 9 7 5 8 9 5 3 4 4 4 4 4 3 4 3 2 4 7 6 4 5 5 6 7 5 3 3 4 2 1 3 3 2 3 3 4 4 4 5 5 5 6 6 7 7 7 6 6 6 6 6 5 4 4 3 3 3 2 2 2 3 4 5 5
11 11 10 8 8 8 9 9 8 9 9 10 9 9 9 10 11 12 14 14 9 7 6 7 8 7 5 5 3 4 4 4 4 3 4 4 2 3 5 5 3 3 5 6 8 7 4 3 6 6 4 5 5 4 4 4 3 4 4 5 5 5 5 6 7 7 7 6 6 6 6 5 5 4 3 3 3 3 3 2 3 3 4 5 5
11 11 10 10 9 8 9 8 8 8 8 8 8 9 9 10 11 12 14 13 9 7 7 8 8 6 6 7 5 4 4 4 6 5 3 4 3 3 3 4 4 3 5 5 5 7 6 5 6 9 8 7 7 6 6 4 3 4 4 5 5 5 5 6 6 7 7 7 6 6 5 5 5 4 4 3 3 3 3 3 3 4 4 5 5
11 10 10 9 9 8 8 8 9 8 8 8 8 8 9 9 9 11 12 11 10 10 8 6 6 7 8 7 6 4 4 4 6 7 6 4 5 4 4 6 6 7 6 4 3 6 7 5 5 8 8 7 8 8 8 6 4 3 4 4 5 5 6 6 6 6 7 7 7 6 6 5 5 5 5 5 4 4 4 4 4 5 5 6 6
11 10 9 9 8 8 7 8 8 8 8 9 9 8 8 9 9 8 9 9 10 11 9 5 3 6 8 7 5 4 5 6 5 6 7 6 7 7 6 7 6 7 7 4 2 3 4 4 5 7 7 7 8 9 11 11 7 3 4 5 6 6 6 7 7 7 7 7 8 7 7 6 6 6 6 6 6 6 6 6 6 7 7 7 8
12 11 10 9 8 7 7 7 7 7 7 7 8 7 7 8 7 7 8 8 10 10 9 5 1 4 8 6 5 4 5 5 3 3 6 8 7 7 10 8 4 4 6 5 2 2 2 4 7 7 7 8 8 9 12 13 8 3 3 5 6 7 7 7 8 8 8 8 9 8 8 8 7 8 8 8 8 8 8 8 8 8 8 9 9
12 12 11 10 9 8 8 7 7 7 7 6 7 7 7 6 5 6 8 7 9 11 10 6 3 6 8 7 6 3 2 3 2 1 3 6 7 5 8 10 5 4 4 5 4 5 5 6 8 7 9 9 8 11 12 12 10 6 5 5 6 7 7 8 8 9 9 9 9 9 9 9 9 9 9 9 10 10 10 10 10 10 10 10 11
12 12 11 11 10 9 8 7 7 8 7 6 7 7 6 5 4 5 7 7 9 12 11 7 6 7 7 4 4 2 2 3 2 1 2 0 5 5 5 11 9 5 5 5 5 5 5 7 8 7 10 11 11 12 12 12 13 9 7 6 7 8 8 8 8 9 9 9 9 10 10 10 10 10 11 11 11 12 12 12 12 13 13 12 13
13 13 12 11 11 9 9 8 7 7 7 7 8 8 5 4 4 4 5 7 9 10 10 8 6 6 5 5 7 5 4 3 0 0 3 4 2 1 1 8 7 2 3 4 4 3 4 7 8 7 10 11 11 13 12 13 13 11 10 8 8 8 8 8 8 8 9 9 9 10 10 11 11 11 11 12 13 13 14 14 14 15 15 15 15
14 13 12 12 11 10 9 9 8 7 7 8 8 6 4 3 4 5 6 7 8 9 10 9 7 6 5 5 8 6 4 4 3 1 1 2 1 4 4 4 5 1 1 1 3 5 6 7 7 8 10 10 10 12 12 13 13 13 12 10 8 8 8 8 8 9 9 10 10 11 11 12 12 13 13 13 14 14 15 16 16 16 17 17 17
14 13 13 12 12 11 10 9 9 8 8 9 8 6 5 3 3 6 7 6 7 7 9 10 9 7 5 5 6 5 4 5 4 2 0 2 3 3 2 4 3 3 1 2 3 5 6 6 6 7 8 10 11 12 12 13 14 14 12 10 9 8 8 9 9 10 10 11 11 12 13 14 14 15 15 15 16 16 16 17 18 18 19 19 19
15 14 13 13 12 12 11 10 10 10 9 9 10 10 8 4 3 5 6 7 7 6 7 8 9 7 5 6 6 4 5 4 2 1 0 3 4 2 0 1 1 1 2 3 4 4 5 6 7 6 8 10 11 11 13 14 15 14 13 11 9 9 9 10 10 11 12 13 14 15 16 16 17 18 19 19 19 19 20 20 20 20 21 21 21
16 15 13 13 13 12 12 11 11 10 9 9 10 12 11 7 6 5 6 7 7 6 6 6 8 8 6 5 5 2 1 1 2 2 2 3 3 2 1 1 2 2 1 2 4 5 6 5 6 6 7 9 10 12 13 15 15 15 14 13 11 11 11 11 13 14 15 16 17 18 20 21 22 22 23 24 24 24 25 25 25 25 24 24 24
15 15 13 12 12 12 12 12 11 11 10 10 10 11 12 11 10 7 7 8 8 7 7 7 8 8 7 6 6 5 3 1 2 3 4 4 2 1 2 3 5 5 4 3 3 3 3 2 4 6 7 9 11 12 13 14 15 16 16 16 15 14 15 15 16 17 18 19 20 21 22 23 24 25 26 27 27 28 28 29 29 29 29 29 29
15 14 13 13 12 11 12 12 12 12 11 11 10 11 11 12 12 10 8 8 8 8 7 7 7 8 7 6 7 8 6 5 5 3 3 3 2 3 5 6 7 6 5 5 4 3 2 2 4 6 9 10 11 11 12 13 15 17 18 18 18 18 18 18 19 20 21 21 22 23 24 25 25 26 26 27 28 29 29 30 31 31 32 32 32
17 16 15 14 13 11 11 12 13 13 12 12 11 11 11 12 12 11 9 9 8 8 8 7 7 8 8 6 6 9 9 10 10 6 4 6 8 9 9 9 8 5 3 4 5 4 5 4 2 3 5 9 10 11 12 14 16 19 20 19 19 19 20 21 22 22 23 23 24 24 25 25 25 25 25 26 26 27 27 28 29 30 31 32 32
20 19 18 16 15 14 12 12 13 13 13 13 13 13 12 12 12 11 10 10 9 8 8 8 7 7 8 6 5 6 8 11 12 10 9 9 10 11 9 8 6 5 4 5 4 3 5 6 4 2 1 3 8 10 12 15 18 20 21 21 22 22 22 23 24 23 24 24 25 25 25 24 24 23 23 23 23 23 23 24 25 25 27 27 29
22 21 20 19 17 16 15 14 14 14 14 13 13 14 14 13 13 12 11 11 11 10 9 9 9 8 7 7 6 5 6 8 10 10 10 8 7 8 7 6 6 5 6 8 7 3 2 5 6 4 1 2 7 11 14 17 19 20 21 23 24 25 24 24 24 24 25 26 26 26 25 24 24 22 22 22 22 23 23 24 25 25 26 27 27
25 23 23 21 20 19 18 17 16 16 15 15 14 15 15 15 14 13 13 13 13 12 11 10 10 9 9 9 9 8 7 8 8 9 8 7 6 6 5 5 6 7 7 10 9 5 2 3 4 5 6 7 9 13 16 17 18 19 20 22 23 24 24 24 25 25 25 25 25 25 24 24 23 22 22 24 25 26 27 28 28 29 29 29 29
27 25 25 23 22 20 20 19 18 18 18 17 16 16 16 16 15 14 14 14 14 13 13 12 11 10 10 10 10 10 9 9 8 8 8 9 8 8 6 4 5 7 8 10 11 8 4 5 5 4 6 9 10 13 15 15 15 16 18 21 22 23 23 24 24 24 23 23 22 22 22 21 20 21 23 25 27 27 28 29 29 29 29 29 30
29 28 27 26 24 23 21 21 20 20 20 20 19 18 17 17 16 16 15 15 15 15 14 13 12 12 12 11 11 10 10 10 9 8 8 9 10 10 7 6 7 8 10 11 13 13 9 8 9 8 8 10 11 11 13 14 14 15 17 19 20 21 21 21 21 21 20 21 21 22 21 20 20 22 24 26 27 28 28 29 28 28 28 29 29
32 30 29 28 27 26 25 24 23 21 21 21 21 20 19 18 18 17 17 16 16 15 15 15 14 13 13 13 12 10 10 10 10 10 10 10 10 9 7 8 10 10 10 11 14 16 15 13 13 13 12 13 14 13 13 15 15 15 16 16 16 16 16 17 18 18 19 20 22 23 22 22 23 25 26 28 29 29 28 28 28 28 28 29 29
34 33 31 30 29 28 28 27 26 24 23 22 22 22 22 21 20 19 18 17 17 16 15 14 14 14 14 14 13 11 10 11 10 11 11 11 11 10 9 10 12 11 11 12 14 16 19 18 16 16 16 16 17 16 16 17 17 17 17 17 15 14 15 15 16 18 19 21 23 24 25 25 26 27 28 28 28 27 27 28 29 30 29 28 27
37 35 33 31 30 30 30 30 29 27 26 24 23 23 22 21 21 21 20 18 18 17 16 14 14 14 15 15 14 12 12 12 12 12 13 12 11 11 11 12 14 14 13 14 15 16 19 20 18 18 18 18 18 19 19 19 19 19 20 19 17 16 15 16 17 19 21 22 24 25 26 28 28 27 26 26 27 28 29 29 29 27 25 24 24
38 37 35 33 32 32 32 32 31 30 28 26 25 24 23 22 21 22 22 21 19 19 18 16 15 15 15 15 15 14 14 14 13 13 13 13 12 12 13 13 13 14 14 14 15 16 18 20 20 19 19 19 21 20 20 21 22 21 20 18 17 16 18 18 19 20 21 23 25 27 27 27 25 24 25 27 29 30 28 26 24 23 22 23 23
40 39 37 35 34 33 33 33 33 31 29 28 27 26 25 24 22 22 22 22 22 21 20 19 17 16 15 15 15 15 16 16 15 15 14 14 14 14 14 13 12 12 12 13 14 15 17 19 20 20 20 21 22 23 22 22 22 22 19 18 17 18 19 20 21 21 22 24 26 26 25 24 23 25 27 27 26 24 22 21 22 22 23 24 24
41 40 39 37 36 35 34 34 34 33 31 30 29 27 26 26 25 24 23 23 23 23 22 21 20 18 17 16 16 16 16 16 16 16 16 16 15 15 14 12 12 12 13 14 15 16 17 18 20 21 22 22 23 24 24 22 22 20 18 18 20 20 20 22 24 26 26 25 24 22 22 23 24 25 24 21 19 19 20 21 23 24 25 26 26
42 42 40 39 37 36 35 35 35 34 33 32 31 29 28 27 26 26 25 24 23 23 23 23 22 21 19 18 17 17 16 16 16 16 17 17 17 16 15 14 14 14 15 15 15 16 17 19 21 21 23 24 24 25 25 24 22 20 18 19 22 23 24 25 25 25 24 22 21 20 21 23 24 22 20 18 17 19 21 23 26 27 27 29 30
42 42 41 40 39 38 36 36 35 35 35 34 33 31 29 28 27 27 27 26 25 24 23 23 23 22 21 19 18 17 17 17 17 16 16 16 16 16 15 15 15 16 16 16 16 17 18 20 22 23 24 25 25 26 26 25 24 23 22 22 24 24 24 24 21 19 19 21 22 22 22 23 22 21 19 18 19 22 25 27 27 28 30 31 32
42 42 41 41 40 39 38 37 36 36 36 36 34 32 30 29 28 28 28 27 26 25 25 24 24 23 22 21 20 19 18 17 16 15 14 14 14 15 15 15 16 17 17 17 18 19 20 22 23 24 25 26 25 26 26 25 24 23 23 22 22 21 20 21 20 18 19 22 23 24 23 22 21 20 20 20 23 25 26 28 30 32 34 33 30
42 41 41 41 41 41 40 39 37 37 37 36 35 33 31 30 29 28 28 28 28 27 27 26 25 24 23 22 22 21 20 18 16 16 16 16 16 17 18 18 18 19 19 20 21 21 22 23 23 23 25 26 25 24 24 22 20 19 18 18 18 19 19 21 23 22 22 23 24 25 24 21 20 21 22 23 25 26 27 31 33 33 32 30 27
43 41 40 40 41 41 40 39 38 37 37 36 35 33 31 30 29 28 28 28 29 29 29 28 28 26 25 24 23 23 21 20 18 18 19 20 20 21 22 22 23 23 22 22 22 21 21 22 23 24 24 24 23 21 19 17 16 16 16 16 17 19 19 21 24 24 22 22 23 23 23 21 21 22 23 23 25 27 30 33 32 29 27 26 27
43 42 40 40 41 42 41 40 39 38 37 36 35 34 32 31 29 28 28 28 29 29 30 30 30 29 28 27 25 24 23 21 21 20 20 21 22 22 23 23 24 23 23 22 21 20 20 22 23 23 22 20 20 18 14 13 15 15 15 16 17 18 20 21 24 24 22 21 20 21 22 22 21 22 23 25 27 30 31 30 27 24 24 25 25
45 44 42 40 40 41 41 40 39 38 36 35 34 33 32 31 29 28 28 28 28 29 30 30 31 31 30 28 27 26 24 24 24 23 23 22 21 22 22 23 23 22 22 22 21 21 21 21 22 22 19 18 18 16 12 12 14 15 15 17 18 19 21 22 22 22 21 19 18 20 22 22 21 22 24 27 29 30 28 24 22 22 23 23 23
47 46 44 42 41 41 41 41 39 38 37 35 33 32 31 29 28 28 28 28 28 29 29 30 31 31 30 30 29 27 26 25 25 25 25 25 24 24 24 25 24 24 24 23 22 21 21 21 21 20 19 17 16 13 12 13 14 15 16 17 18 20 21 21 20 19 18 17 17 19 21 22 22 24 26 29 29 27 23 20 19 21 22 22 22
48 47 46 44 43 41 41 41 40 39 38 36 34 32 29 27 26 27 29 29 29 29 29 29 30 31 30 30 30 28 27 26 24 23 24 24 26 27 27 27 27 26 25 24 23 22 22 21 21 21 20 17 14 13 14 14 15 15 16 17 18 18 18 18 17 17 16 16 18 20 22 23 26 28 30 30 26 22 19 18 20 20 21 22 23
48 48 47 45 44 42 41 41 42 40 39 37 35 33 30 28 26 27 28 29 29 29 29 28 29 30 31 31 30 30 28 27 25 23 22 23 24 26 27 27 26 26 25 24 23 23 23 22 22 22 21 18 14 13 15 15 15 14 16 18 18 15 14 16 17 17 16 18 21 22 23 25 29 30 30 27 23 18 17 19 21 21 22 22 22
48 48 47 46 45 44 42 42 42 42 40 38 36 34 32 30 29 29 29 29 29 29 29 28 29 30 31 32 32 32 30 29 27 25 24 24 24 25 25 25 26 27 25 24 23 24 23 23 23 22 21 20 18 16 16 16 15 14 17 19 17 14 15 17 18 18 18 19 22 23 24 27 29 29 27 24 21 18 18 21 22 21 22 22 23
47 46 45 45 45 44 44 43 42 43 42 40 38 36 34 33 32 31 30 30 30 30 29 29 29 30 31 32 33 34 33 31 30 29 28 27 27 26 26 26 28 28 26 24 24 24 24 24 24 23 23 22 20 18 17 16 15 16 19 19 15 14 16 17 18 20 19 19 23 25 27 28 27 25 23 23 22 21 21 22 22 21 22 23 24
Wind_Direction
118 118 121 122 117 122 122 117 116 116 119 119 128 131 127 126 119 117 121 119 110 102 95 85 73 91 129 150 169 194 60 86 82 82 97 103 107 106 102 98 95 91 89 93 104 118 126 132 139 143 141 137 138 142 149 153 150 141 105 76 74 78 73 65 64 62 54 50 46 32 15 10 6 1 358 356 353 354 355 358 360 1 5 10 19
125 126 129 127 119 125 130 127 121 119 125 127 126 129 132 134 127 120 119 114 111 105 102 106 85 75 123 150 163 168 47 67 83 77 82 94 105 108 107 104 101 96 95 93 92 95 99 108 122 138 152 156 158 156 154 149 134 116 93 90 94 91 80 73 68 61 45 24 17 1 348 347 348 347 349 350 348 349 351 354 358 0 8 17 21
134 140 136 134 129 123 125 127 127 124 124 124 120 126 136 137 135 133 124 115 120 121 117 139 159 87 97 130 152 136 116 68 77 70 58 71 97 99 100 103 106 108 106 103 100 99 99 105 113 125 138 145 149 145 137 127 114 102 96 95 88 76 56 40 18 2 345 338 343 338 334 336 337 338 342 343 342 345 347 349 355 1 10 19 22
141 145 136 133 128 120 126 126 125 126 123 119 118 127 138 142 144 142 140 142 145 139 127 139 171 144 99 105 23 359 197 114 62 64 53 50 87 95 94 97 101 108 110 112 113 112 110 112 117 122 128 130 131 131 128 122 111 89 64 38 22 7 340 330 324 323 322 327 333 330 328 330 329 330 333 334 336 340 343 345 354 3 11 19 28
149 149 141 133 124 120 132 133 123 124 128 128 122 125 136 144 146 145 148 149 145 133 121 125 151 164 148 99 56 38 130 94 37 47 52 42 58 82 91 93 94 97 106 114 116 117 118 119 121 126 131 132 128 122 119 89 43 7 348 341 331 322 319 316 312 313 313 319 323 321 320 322 321 322 325 327 330 335 337 341 353 6 10 19 40
162 163 162 148 134 128 133 132 123 121 132 137 129 125 132 141 144 146 147 143 137 129 126 140 151 169 164 104 74 96 107 101 359 356 29 30 28 50 89 91 91 94 92 94 91 98 111 120 126 128 128 128 143 314 325 334 333 330 324 321 322 317 315 313 310 310 313 315 315 313 312 313 313 314 318 320 323 329 332 338 350 3 9 24 58
170 170 170 159 144 135 133 130 127 128 135 135 133 134 135 143 147 143 136 133 137 131 135 157 143 142 149 117 97 112 114 151 235 308 345 348 4 38 73 77 69 83 86 75 65 66 74 127 177 170 162 283 291 295 303 309 307 309 312 316 318 316 313 311 309 309 310 310 308 307 306 304 306 309 313 315 318 326 330 336 346 356 8 41 83
173 169 163 158 150 140 134 134 138 138 139 135 137 142 139 145 149 138 132 133 139 140 151 165 146 135 143 134 128 140 153 166 200 245 336 339 351 26 37 70 50 13 89 74 60 50 27 4 224 218 219 259 278 294 295 297 299 298 305 313 312 310 308 307 307 305 305 307 305 302 302 300 303 308 313 314 316 322 324 326 334 347 3 77 113
169 168 158 155 152 146 140 140 145 143 145 142 143 148 140 142 146 133 132 133 131 131 138 144 135 132 143 143 147 173 178 154 170 210 238 290 313 353 6 49 39 332 139 57 32 28 16 358 314 243 276 314 302 308 302 299 304 307 310 311 311 310 309 308 307 306 305 306 305 303 303 302 305 310 312 314 314 315 317 314 321 336 350 138 136
165 168 159 154 150 149 146 142 143 145 152 147 146 155 144 141 143 135 132 130 130 127 120 126 133 141 146 148 150 159 138 140 164 190 221 258 259 289 341 28 14 351 152 71 3 354 354 358 5 357 257 314 340 320 316 321 322 323 323 319 321 318 316 317 315 316 315 313 314 313 311 306 302 306 307 308 306 307 307 301 305 313 205 168 158
165 170 164 159 150 147 144 139 139 141 147 141 136 146 145 141 143 143 140 133 137 147 135 141 173 164 164 167 157 144 103 160 172 166 180 228 242 259 318 9 6 17 25 349 71 330 330 328 321 312 273 261 297 329 333 342 343 339 333 328 329 328 327 329 330 331 330 326 328 325 319 313 301 298 301 302 300 299 299 294 291 260 202 185 178
167 170 170 165 149 141 138 139 143 142 141 139 134 137 141 140 141 145 146 133 129 145 153 164 161 154 155 132 145 152 133 156 161 152 164 181 226 241 269 313 350 16 2 345 6 332 306 316 315 302 286 293 307 340 348 348 350 346 340 335 333 338 338 339 341 340 338 335 335 334 327 322 310 298 296 296 293 288 285 281 265 228 207 199 199
165 163 168 162 148 144 142 142 147 143 141 144 142 142 140 137 140 144 144 136 131 147 160 171 161 153 145 104 114 138 135 144 150 144 155 134 127 214 248 274 311 358 359 351 352 344 324 322 337 349 359 351 348 1 3 349 349 350 347 347 343 344 345 345 348 347 344 342 339 339 336 332 324 309 296 291 285 280 274 262 242 222 213 213 218
160 157 161 157 151 146 141 144 148 145 145 146 144 144 138 134 143 146 142 138 139 158 161 150 155 157 150 144 138 142 136 148 165 139 143 157 140 182 236 259 263 330 349 346 341 345 354 336 344 0 8 6 4 7 11 358 349 355 354 354 350 348 347 348 352 351 349 347 346 345 343 339 334 322 308 298 290 282 272 259 243 228 224 226 233
163 158 157 154 156 147 139 143 146 144 142 139 137 142 139 136 143 147 148 146 144 159 159 141 145 154 160 167 173 163 150 166 188 187 170 188 207 182 194 223 238 290 316 325 318 315 335 351 356 3 4 7 8 5 13 12 357 2 0 356 351 348 350 350 353 356 355 351 349 350 346 342 335 327 321 311 300 291 280 270 258 247 244 245 249
169 165 160 159 160 151 147 143 139 141 139 135 137 141 141 140 142 146 154 158 151 151 152 142 149 164 170 177 178 167 151 149 167 176 178 200 231 225 185 195 235 277 296 311 290 290 324 359 9 5 5 7 7 6 9 4 349 354 357 355 352 348 350 353 354 356 357 355 352 350 345 339 334 329 325 319 311 301 292 284 275 269 264 263 265
174 173 166 165 165 157 154 149 142 140 137 136 141 141 135 134 138 146 155 160 153 146 147 148 166 178 172 174 174 154 140 144 154 173 192 208 225 241 217 203 245 268 269 298 327 298 332 8 6 9 9 355 353 357 2 360 355 356 353 352 352 350 349 350 353 353 354 355 353 350 343 336 331 325 323 321 318 312 305 298 291 285 281 278 279
177 178 174 170 171 166 164 160 148 141 139 137 138 140 134 127 136 151 155 161 158 151 159 167 189 184 168 147 125 116 123 139 149 181 202 209 217 240 227 222 279 281 252 281 345 340 332 356 358 9 6 346 343 352 357 360 6 25 14 0 356 354 353 350 350 351 349 348 346 344 338 332 326 320 318 316 316 315 312 308 302 298 294 290 290
181 181 178 175 177 175 175 173 159 153 156 150 141 142 139 132 143 159 161 167 160 154 162 165 139 146 150 133 115 102 117 126 103 157 188 210 216 232 223 226 278 316 274 285 304 290 291 336 344 354 1 352 351 356 355 359 10 27 27 14 7 1 357 353 350 349 346 344 340 336 331 327 322 319 316 313 312 311 309 308 306 305 302 300 299
187 183 181 179 182 183 183 183 176 170 163 160 159 149 145 151 150 153 163 166 160 160 161 153 135 137 147 165 161 149 152 130 73 71 65 60 196 190 217 230 253 285 286 301 316 291 289 330 334 341 355 353 354 355 353 358 6 18 25 19 11 2 355 353 350 348 344 340 336 331 327 323 321 319 316 312 310 308 307 305 303 302 301 300 299
192 188 188 185 185 187 187 188 188 180 165 165 168 151 148 176 165 156 166 165 165 169 167 153 145 155 173 204 187 167 163 162 124 342 41 42 150 120 271 222 228 282 305 315 338 321 315 330 328 330 340 342 345 346 345 352 358 6 11 11 8 359 353 350 347 344 340 336 332 328 324 322 320 319 316 313 311 308 307 304 301 299 298 298 297
196 193 192 191 189 190 189 187 189 190 176 164 159 154 174 198 187 182 178 170 170 171 169 162 158 166 174 191 194 187 185 192 196 204 17 20 336 1 31 169 185 138 56 315 312 318 321 322 319 323 333 338 338 338 342 348 351 357 2 2 359 353 347 345 340 337 334 329 326 323 321 320 318 317 316 314 312 309 308 306 303 301 298 298 297
199 199 195 196 195 193 193 190 189 196 193 173 160 177 210 212 187 190 186 178 176 173 170 169 168 168 147 136 163 154 131 161 162 145 280 352 340 339 61 128 184 227 282 325 314 326 327 328 333 330 338 346 343 344 350 352 351 356 358 355 350 344 340 337 333 330 327 323 322 319 318 317 316 316 314 313 312 310 308 307 305 304 302 301 300
199 203 199 200 200 198 197 195 194 196 197 187 178 182 199 227 227 198 194 188 183 178 175 173 168 167 151 126 136 119 99 122 119 104 252 15 31 17 40 112 157 211 319 316 301 318 315 320 336 330 328 337 343 352 358 357 355 352 350 348 341 335 332 328 325 323 321 320 319 318 318 317 317 316 315 314 312 310 309 307 306 305 303 302 302
196 201 201 203 205 205 203 200 199 199 196 195 192 183 183 209 231 220 205 197 193 188 183 182 168 161 168 155 155 211 265 68 23 5 315 324 359 1 301 265 263 246 265 298 295 318 321 320 335 333 328 331 337 349 355 354 353 348 342 338 332 328 325 322 321 320 319 319 319 319 319 319 319 318 317 316 315 314 312 311 309 307 305 304 302
194 198 200 202 207 209 210 208 204 202 200 199 201 193 185 194 210 216 208 199 196 194 189 192 184 169 172 174 176 209 232 216 261 298 316 311 301 267 236 263 285 270 241 234 262 309 331 311 304 310 324 332 331 338 343 344 344 340 335 329 325 323 321 320 320 319 319 318 317 317 316 316 316 315 315 314 313 313 312 311 310 309 307 306 304
203 203 205 206 210 209 209 213 213 208 205 204 205 205 201 199 205 214 216 207 198 197 197 199 196 176 166 180 193 191 180 173 195 243 295 289 279 272 263 276 293 281 244 238 246 250 250 254 272 286 303 316 318 323 329 331 331 329 327 324 322 320 317 317 318 318 318 317 315 315 314 313 313 311 311 310 309 309 308 308 308 308 307 306 305
215 214 215 216 218 217 212 212 217 218 213 210 209 211 211 207 212 219 221 221 213 204 206 208 209 192 175 189 209 197 188 186 186 196 225 245 260 267 271 282 296 303 275 260 262 253 243 256 292 292 294 299 301 310 316 319 321 320 320 321 321 321 320 320 320 319 318 317 317 316 316 316 314 312 309 308 307 308 308 309 309 309 309 307 306
222 221 223 226 226 227 224 215 216 222 222 219 216 216 217 213 215 219 217 222 225 218 213 213 218 212 194 197 222 220 206 198 197 207 221 232 248 257 266 281 294 309 315 312 309 275 235 239 263 300 34 293 289 297 303 307 311 314 315 319 320 320 320 320 320 319 319 320 320 321 322 322 322 319 316 314 314 315 316 317 317 316 315 313 311
226 226 226 230 231 231 232 226 220 221 224 226 224 221 223 220 218 221 219 220 226 225 221 217 218 224 214 205 217 236 231 216 208 211 223 238 251 254 261 278 289 295 308 314 320 323 242 230 244 267 313 269 274 286 293 300 306 309 311 313 313 314 316 316 317 319 322 325 326 326 325 326 327 329 330 330 330 330 329 328 325 323 320 318 316
230 229 227 229 231 231 232 232 228 224 224 228 228 226 228 227 225 224 223 223 225 226 226 224 221 224 225 218 216 225 234 232 220 212 222 243 257 258 262 281 298 304 311 311 311 319 317 274 248 254 277 279 279 286 291 297 302 304 305 305 307 311 313 315 317 320 325 329 330 330 329 329 331 333 336 336 336 334 333 332 330 328 325 322 320
232 230 229 229 231 232 233 234 232 229 226 227 230 229 230 232 232 230 228 226 226 226 226 228 229 228 230 229 226 228 235 238 239 234 231 237 250 266 279 297 318 323 323 315 310 313 317 309 294 273 281 287 287 291 294 297 299 299 300 303 306 310 312 314 318 322 326 330 333 334 334 333 333 334 334 333 331 330 330 329 327 326 325 323 321
231 230 229 230 233 235 236 238 238 233 228 227 230 232 232 233 234 234 234 231 227 227 228 229 230 230 232 233 231 231 236 240 244 244 237 236 246 259 278 304 321 324 322 315 312 313 319 325 321 319 319 314 312 313 311 311 313 310 308 310 311 311 312 315 321 327 332 333 335 336 336 333 330 329 329 327 325 323 322 322 321 321 322 322 321
232 231 229 229 231 235 238 241 242 240 233 229 230 233 235 235 235 235 236 235 234 231 229 230 231 231 233 238 239 234 236 240 242 245 245 243 247 251 266 288 297 300 300 302 306 309 315 326 328 328 330 327 326 329 325 323 327 324 321 323 322 320 324 326 328 333 336 337 337 338 336 332 329 327 326 324 321 319 318 319 320 321 322 322 322
232 233 232 230 230 233 237 240 242 244 241 234 230 232 236 238 237 237 237 238 241 239 236 232 230 231 234 241 248 247 246 246 245 248 250 247 249 252 254 260 267 273 280 288 296 301 306 314 321 322 323 322 323 328 330 329 331 331 330 334 336 335 335 332 327 328 333 334 334 335 334 333 331 329 326 323 320 319 319 320 320 321 322 323 323
233 234 234 233 232 233 235 237 240 243 244 240 234 232 235 238 238 238 238 238 240 243 244 239 233 231 233 239 245 248 250 251 249 252 255 255 256 258 255 250 254 261 269 277 283 289 293 300 309 314 316 318 322 328 331 330 331 332 332 334 335 333 332 329 326 326 330 332 331 332 332 331 328 325 324 323 323 324 324 323 323 326 329 334 337
232 233 234 234 233 232 234 236 238 241 242 243 240 236 235 236 237 237 237 237 237 240 244 245 242 236 235 238 242 244 247 249 250 252 255 258 260 261 262 257 254 257 261 265 272 279 285 294 304 312 316 319 322 327 330 329 329 330 331 332 331 329 328 327 325 326 328 328 328 327 326 324 323 323 324 325 326 327 328 330 336 342 347 350 349
231 231 232 232 232 232 233 235 237 239 239 240 241 239 237 236 237 237 236 236 237 239 242 245 246 244 241 240 241 242 245 247 250 252 256 258 258 259 261 260 257 257 261 266 273 281 288 294 302 309 316 320 321 325 329 327 324 325 328 329 326 325 325 322 321 323 324 323 323 323 323 323 325 327 327 327 328 332 336 342 348 351 352 350 346
229 229 229 230 231 232 233 234 235 237 237 238 239 239 238 237 237 238 238 237 237 239 243 245 247 248 247 246 246 246 247 248 249 250 253 256 257 257 257 257 258 261 266 272 278 284 289 294 301 307 314 318 318 322 326 323 321 323 325 322 320 321 320 318 318 320 320 321 323 324 325 327 329 330 331 335 340 342 344 348 351 352 350 345 340
227 227 227 229 230 231 232 233 234 235 236 236 236 236 237 237 238 239 240 241 240 240 242 244 247 249 250 251 251 250 251 252 252 251 252 254 256 257 257 258 262 265 269 274 279 285 291 297 303 308 311 314 316 320 321 320 319 320 318 313 313 314 314 314 318 321 323 326 328 328 330 333 333 335 340 347 350 348 349 352 352 349 344 337 330
227 227 226 227 229 230 231 232 233 234 234 234 234 235 237 238 238 239 241 242 242 243 242 243 244 246 249 251 251 252 254 257 256 253 252 253 254 257 259 260 262 265 269 274 279 287 293 296 302 306 307 310 315 317 318 319 319 315 311 307 307 310 312 315 324 332 333 334 333 333 338 341 338 340 348 351 351 352 353 351 347 341 334 327 322
227 226 224 224 226 228 230 231 231 231 232 233 233 235 237 239 239 240 241 242 244 245 246 246 246 246 247 248 251 254 258 260 258 256 255 255 256 260 262 264 265 265 269 274 280 286 291 294 299 303 303 307 314 316 315 318 317 312 309 308 309 314 318 321 330 341 343 341 337 336 342 345 341 343 352 352 350 351 348 344 339 333 328 325 323
226 225 222 221 223 226 229 231 231 230 231 232 233 235 236 239 240 240 242 244 245 246 247 248 250 251 251 251 254 256 258 258 256 256 258 260 262 263 264 266 267 269 271 274 279 284 287 291 297 299 299 305 313 315 313 315 313 309 311 313 316 321 324 325 330 339 346 344 337 334 339 345 343 344 349 348 346 344 340 337 334 331 329 329 328
224 224 221 219 221 224 227 229 231 231 231 232 233 234 236 237 239 240 242 244 245 246 247 249 251 253 255 256 258 258 258 258 254 251 252 254 257 259 262 265 268 271 273 274 277 280 283 288 293 295 298 304 310 313 313 311 307 307 313 318 321 322 323 323 326 334 343 343 334 329 334 343 343 340 342 343 341 339 336 334 332 330 330 331 330
222 222 222 219 219 221 225 228 230 231 233 233 234 235 235 236 237 238 240 243 244 245 247 249 251 252 254 256 258 259 260 260 258 255 252 252 254 256 259 263 265 267 269 271 274 278 282 286 289 294 301 305 306 309 311 305 303 309 313 316 319 321 322 323 324 330 339 341 332 327 332 339 338 335 338 339 337 336 335 333 331 331 331 331 329
219 221 221 219 218 219 223 227 230 232 233 234 235 235 236 236 236 237 239 242 244 245 245 247 249 251 253 254 256 258 260 259 258 256 255 255 256 258 260 262 264 267 269 272 276 280 282 285 287 293 302 305 303 306 308 302 303 308 309 311 316 321 322 323 324 329 336 337 330 327 331 333 330 329 334 336 334 335 335 334 333 333 333 333 334
218 220 221 220 219 219 221 225 228 231 234 236 237 236 237 237 237 236 238 240 243 244 245 245 247 249 252 253 255 258 259 259 258 255 253 252 252 255 258 262 266 270 273 275 279 282 284 285 286 292 302 306 303 302 303 303 304 306 305 306 313 320 321 319 321 328 333 330 327 328 329 329 327 326 327 331 334 337 337 336 336 335 335 339 343
217 219 220 221 221 220 220 222 226 230 233 236 238 237 238 238 237 236 237 239 241 244 245 244 244 247 249 251 253 256 258 259 259 257 254 251 249 250 254 259 264 268 271 276 280 283 286 288 291 296 302 303 299 295 296 299 303 305 303 304 312 318 314 311 317 328 330 324 324 328 328 327 327 326 325 329 335 339 339 339 341 341 343 347 349
216 218 219 220 221 221 220 221 224 228 231 234 237 238 238 239 238 237 237 238 240 243 244 244 244 245 247 249 251 253 256 258 260 259 257 253 250 251 253 257 262 266 271 276 280 284 288 291 293 294 295 292 287 283 285 292 301 306 302 304 314 316 305 304 313 320 321 319 322 326 325 324 325 325 326 330 335 340 346 347 347 347 348 350 351
215 217 219 219 221 222 222 222 222 225 228 231 235 237 238 239 239 239 240 240 242 243 244 244 244 244 245 247 248 251 254 258 260 260 259 256 254 254 256 258 262 267 273 278 282 286 289 288 288 287 287 286 282 277 277 285 296 303 303 306 312 307 297 302 307 307 309 314 318 322 322 321 323 324 326 330 335 344 353 352 349 349 350 352 353
215 217 218 219 220 221 223 224 224 224 225 228 231 234 236 237 238 240 241 242 243 245 246 245 244 243 244 246 247 249 252 256 258 260 259 258 257 258 259 260 262 267 274 280 282 284 284 283 283 284 284 284 281 276 277 282 290 299 303 305 303 294 292 297 297 298 303 308 313 318 320 319 321 324 328 333 337 345 352 352 350 349 350 354 355